Weather History for KCPC - June, 2013

Change the Weather History Date:

Sunday, June 2, 2013

  Actual Average (KLBT) Record (KLBT)
Temperature  
Mean Temperature 74 °F 75 °F  
Max Temperature 84 °F 86 °F 99 °F (2002)
Min Temperature 64 °F 64 °F 50 °F (2014)
Degree Days  
Heating Degree Days 0 0  
Month to date heating degree days 0  
Since 1 June heating degree days 0  
Since 1 July heating degree days 2761  
Cooling Degree Days 9 10  
Month to date cooling degree days 20  
Year to date cooling degree days 270  
Since 1 June cooling degree days 20  
Growing Degree Days 24 (Base 50)    
Moisture  
Dew Point 68 °F    
Average Humidity 77    
Maximum Humidity 97    
Minimum Humidity 53    
Precipitation  
Precipitation 0.00 in 0.17 in 0.52 in (2015)
Month to date precipitation 0.33  
Year to date precipitation 15.40  
Sea Level Pressure  
Sea Level Pressure 30.02 in    
Wind  
Wind Speed 5 mph (South)    
Max Wind Speed 15 mph    
Max Gust Speed 18 mph    
Visibility 10 miles    
Events      
T = Trace of Precipitation, MM = Missing Value Source: NWS Daily Summary

Daily Weather History Graph

Daily Weather History Graph

Search for Another Location

Airport or City:

Trip Planner

Search our weather history database for the weather conditions in past years. The results will help you decide how hot, cold, wet, or windy it might be!

Date:

Astronomy

Jun. 02, 2013 Rise Set
Actual Time 6:03 AM EDT 8:22 PM EDT
Civil Twilight 5:34 AM EDT 8:51 PM EDT
Nautical Twilight 4:59 AM EDT 9:26 PM EDT
Astronomical Twilight 4:20 AM EDT 10:05 PM EDT
Moon 2:15 AM EDT 3:03 PM EDT
Length of Visible Light 15h 16m
Length of Day
14h 18m
Waning Crescent, 31% of the Moon is Illuminated
Jun 2
Waning Crescent
Jun 8
New
Jun 16
First Quarter
Jun 23
Full
Jun 30
Last Quarter

Hourly Weather History & Observations

Time (EDT) Temp. Heat Index Dew Point Humidity Pressure Visibility Wind Dir Wind Speed Gust Speed Precip Events Conditions
12:15 AM 70.7 °F - 67.5 °F 89% 30.11 in 10.0 mi SSW 4.6 mph - N/A   Clear
12:35 AM 70.2 °F - 67.1 °F 90% 30.11 in 10.0 mi South 4.6 mph - N/A   Clear
12:55 AM 70.7 °F - 67.1 °F 88% 30.10 in 10.0 mi South 4.6 mph - N/A   Clear
1:15 AM 70.7 °F - 67.1 °F 88% 30.10 in 10.0 mi SSW 5.8 mph - N/A   Clear
1:35 AM 70.2 °F - 66.9 °F 89% 30.09 in 10.0 mi South 4.6 mph - N/A   Clear
1:55 AM 69.8 °F - 66.7 °F 90% 30.08 in 10.0 mi South 3.5 mph - N/A   Clear
2:15 AM 69.1 °F - 66.4 °F 91% 30.08 in 10.0 mi South 3.5 mph - N/A   Clear
2:35 AM 69.1 °F - 66.4 °F 91% 30.07 in 10.0 mi Calm Calm - N/A   Clear
2:55 AM 68.9 °F - 66.2 °F 91% 30.06 in 10.0 mi Calm Calm - N/A   Clear
3:15 AM 68.4 °F - 66.2 °F 93% 30.05 in 10.0 mi Calm Calm - N/A   Clear
3:35 AM 68.0 °F - 65.8 °F 93% 30.04 in 10.0 mi South 3.5 mph - N/A   Clear
3:55 AM 68.0 °F - 66.0 °F 93% 30.03 in 10.0 mi Calm Calm - N/A   Clear
4:15 AM 67.5 °F - 65.7 °F 94% 30.03 in 10.0 mi Calm Calm - N/A   Clear
4:35 AM 67.6 °F - 65.8 °F 94% 30.03 in 10.0 mi Calm Calm - N/A   Clear
4:55 AM 65.7 °F - 64.4 °F 96% 30.03 in 5.0 mi Calm Calm - N/A   Clear
5:15 AM 65.3 °F - 64.4 °F 97% 30.02 in 2.5 mi Calm Calm - N/A   Clear
5:35 AM 65.1 °F - 63.9 °F 96% 30.03 in 7.0 mi Calm Calm - N/A   Clear
5:55 AM 64.8 °F - 63.3 °F 95% 30.03 in 7.0 mi Calm Calm - N/A   Clear
6:15 AM 65.3 °F - 64.2 °F 96% 30.03 in 3.0 mi Calm Calm - N/A   Clear
6:35 AM 65.3 °F - 63.7 °F 94% 30.04 in 10.0 mi Calm Calm - N/A   Clear
6:55 AM 64.8 °F - 62.8 °F 93% 30.04 in 10.0 mi Calm Calm - N/A   Clear
7:15 AM 68.2 °F - 66.4 °F 94% 30.05 in 10.0 mi Calm Calm - N/A   Clear
7:35 AM 70.7 °F - 68.0 °F 91% 30.05 in 10.0 mi Calm Calm - N/A   Clear
7:55 AM 72.0 °F - 68.5 °F 89% 30.06 in 10.0 mi SSW 3.5 mph - N/A   Clear
8:15 AM 73.8 °F - 69.4 °F 86% 30.06 in 10.0 mi SSW 5.8 mph - N/A   Clear
8:35 AM 75.9 °F - 70.3 °F 83% 30.06 in 10.0 mi SSW 5.8 mph - N/A   Clear
8:55 AM 76.5 °F - 69.4 °F 79% 30.05 in 10.0 mi South 10.4 mph - N/A   Scattered Clouds
9:15 AM 78.3 °F - 69.1 °F 73% 30.05 in 10.0 mi SSW 9.2 mph - N/A   Mostly Cloudy
9:35 AM 78.8 °F - 68.2 °F 70% 30.06 in 10.0 mi SSW 10.4 mph - N/A   Mostly Cloudy
9:55 AM 79.9 °F - 68.0 °F 67% 30.05 in 10.0 mi South 9.2 mph - N/A   Mostly Cloudy
10:15 AM 79.5 °F - 67.6 °F 67% 30.05 in 10.0 mi South 6.9 mph - N/A   Scattered Clouds
10:35 AM 81.5 °F 83.9 °F 66.9 °F 61% 30.05 in 10.0 mi South 10.4 mph - N/A   Clear
10:55 AM 81.5 °F 83.9 °F 66.7 °F 61% 30.05 in 10.0 mi South 8.1 mph - N/A   Clear
11:15 AM 82.6 °F 85.1 °F 67.1 °F 59% 30.04 in 10.0 mi SSW 5.8 mph - N/A   Clear
11:35 AM 83.3 °F 85.1 °F 65.3 °F 54% 30.04 in 10.0 mi SW 8.1 mph - N/A   Clear
11:55 AM 84.2 °F 86.1 °F 65.3 °F 53% 30.03 in 10.0 mi South 8.1 mph - N/A   Scattered Clouds
12:15 PM 84.0 °F 85.8 °F 65.3 °F 53% 30.04 in 10.0 mi SE 6.9 mph - N/A   Mostly Cloudy
12:35 PM 81.3 °F 84.5 °F 68.9 °F 66% 30.05 in 10.0 mi South 12.7 mph 18.4 mph N/A   Overcast
12:55 PM 81.1 °F 84.2 °F 68.9 °F 66% 30.04 in 10.0 mi SE 10.4 mph - N/A   Mostly Cloudy
1:15 PM 82.9 °F 86.0 °F 68.4 °F 61% 30.03 in 10.0 mi SSE 9.2 mph - N/A   Scattered Clouds
1:35 PM 83.5 °F 86.9 °F 68.7 °F 61% 30.03 in 10.0 mi South 11.5 mph - N/A   Scattered Clouds
1:55 PM 83.3 °F 86.4 °F 68.0 °F 60% 30.02 in 10.0 mi SSE 11.5 mph 18.4 mph N/A   Mostly Cloudy
2:15 PM 81.5 °F 84.9 °F 69.4 °F 67% 30.02 in 10.0 mi SSW 13.8 mph 17.3 mph N/A   Mostly Cloudy
2:35 PM 81.9 °F 85.2 °F 69.3 °F 65% 30.01 in 10.0 mi SSE 11.5 mph - N/A   Mostly Cloudy
2:55 PM 83.5 °F 87.2 °F 69.4 °F 62% 30.00 in 10.0 mi SSE 9.2 mph - N/A   Scattered Clouds
3:15 PM 84.0 °F 87.3 °F 68.4 °F 59% 30.00 in 10.0 mi SSE 13.8 mph - N/A   Scattered Clouds
3:35 PM 84.9 °F 88.2 °F 68.2 °F 57% 30.00 in 10.0 mi SSE 10.4 mph - N/A   Scattered Clouds
3:55 PM 84.6 °F 87.6 °F 67.8 °F 57% 29.99 in 10.0 mi SSE 11.5 mph 18.4 mph N/A   Scattered Clouds
4:15 PM 84.4 °F 87.3 °F 67.6 °F 57% 29.99 in 10.0 mi South 11.5 mph 18.4 mph N/A   Scattered Clouds
4:35 PM 84.2 °F 87.3 °F 68.2 °F 58% 29.98 in 10.0 mi SSE 12.7 mph 16.1 mph N/A   Mostly Cloudy
4:55 PM 83.3 °F 86.6 °F 68.4 °F 61% 29.98 in 10.0 mi SSE 11.5 mph 16.1 mph N/A   Mostly Cloudy
5:15 PM 82.8 °F 85.3 °F 66.9 °F 59% 29.97 in 10.0 mi South 11.5 mph - N/A   Scattered Clouds
5:35 PM 82.9 °F 86.0 °F 68.2 °F 61% 29.96 in 10.0 mi SSE 9.2 mph 17.3 mph N/A   Clear
5:55 PM 82.9 °F 86.3 °F 68.7 °F 62% 29.96 in 10.0 mi SSE 15.0 mph 18.4 mph N/A   Scattered Clouds
6:15 PM 81.5 °F 84.6 °F 68.9 °F 65% 29.96 in 10.0 mi South 11.5 mph 18.4 mph N/A   Scattered Clouds
6:35 PM 80.2 °F 83.1 °F 68.9 °F 68% 29.97 in 10.0 mi SSE 12.7 mph 17.3 mph N/A   Clear
6:55 PM 79.2 °F - 69.3 °F 72% 29.97 in 10.0 mi South 9.2 mph - N/A   Scattered Clouds
7:15 PM 78.1 °F - 69.3 °F 74% 29.98 in 10.0 mi South 12.7 mph 17.3 mph N/A   Scattered Clouds
7:35 PM 77.5 °F - 69.8 °F 77% 29.98 in 10.0 mi South 8.1 mph - N/A   Clear
7:55 PM 77.0 °F - 69.6 °F 78% 29.98 in 10.0 mi South 5.8 mph - N/A   Scattered Clouds
8:15 PM 76.8 °F - 69.8 °F 79% 29.98 in 10.0 mi SSE 5.8 mph - N/A   Mostly Cloudy
8:35 PM 76.5 °F - 70.2 °F 81% 29.97 in 10.0 mi SE 4.6 mph - N/A   Overcast
8:55 PM 76.3 °F - 70.2 °F 81% 29.98 in 10.0 mi SSE 5.8 mph - N/A   Scattered Clouds
9:15 PM 76.1 °F - 69.8 °F 81% 29.98 in 10.0 mi South 8.1 mph - N/A   Clear
9:35 PM 75.6 °F - 68.2 °F 78% 29.98 in 10.0 mi South 6.9 mph - N/A   Clear
9:55 PM 75.2 °F - 67.6 °F 77% 29.97 in 10.0 mi SSE 8.1 mph - N/A   Clear
10:15 PM 74.7 °F - 68.0 °F 80% 29.97 in 10.0 mi South 8.1 mph - N/A   Clear
10:35 PM 74.3 °F - 68.7 °F 83% 29.97 in 10.0 mi South 5.8 mph - N/A   Clear
10:55 PM 74.3 °F - 69.6 °F 85% 29.98 in 10.0 mi SSE 6.9 mph - N/A   Scattered Clouds
11:15 PM 74.3 °F - 70.2 °F 87% 29.98 in 10.0 mi South 5.8 mph - N/A   Scattered Clouds
11:35 PM 74.3 °F - 70.3 °F 87% 29.99 in 10.0 mi Calm Calm - N/A   Scattered Clouds
11:55 PM 74.3 °F - 70.7 °F 88% 29.98 in 10.0 mi South 5.8 mph - N/A   Mostly Cloudy